• In Schweiz
  • Länderverzeichnis
  • Für 7 Tage
  • Wassertemperatur
  • Satellitenkarten
  • Wetterkarte
  • Widgets
  • user-avatar
    Anmelden

    Stündliche Wetter Brisbane

    Heute, 22 Oktober, Montag

    Zeit Temperatur Niederschläge Wind Luftdruck Luftfeuchtigkeit
    00:00 +18°C° 0 mm 2 m/S 759 mmHg 88%
    01:00 +18°C° 0 mm 2 m/S 759 mmHg 89%
    02:00 +18°C° 0 mm 2 m/S 759 mmHg 89%
    03:00 +18°C° 0 mm 2 m/S 759 mmHg 89%
    04:00 +18°C° 0 mm 1 m/S 759 mmHg 89%
    05:00 +19°C° 0 mm 2 m/S 759 mmHg 85%
    06:00 +20°C° 0 mm 2 m/S 759 mmHg 81%
    07:00 +21°C° 0 mm 2 m/S 760 mmHg 77%
    08:00 +24°C° 0 mm 2 m/S 760 mmHg 66%
    09:00 +27°C° 0 mm 2 m/S 760 mmHg 56%
    10:00 +30°C° 0 mm 1 m/S 760 mmHg 47%
    11:00 +30°C° 0 mm 1 m/S 760 mmHg 44%
    12:00 +31°C° 0 mm 2 m/S 759 mmHg 42%
    13:00 +32°C° 0 mm 2 m/S 759 mmHg 40%
    14:00 +30°C° 0.1 mm 3 m/S 759 mmHg 45%
    15:00 +29°C° 0.1 mm 3 m/S 759 mmHg 50%
    16:00 +28°C° 0.1 mm 4 m/S 758 mmHg 55%
    17:00 +27°C° 0 mm 4 m/S 759 mmHg 63%
    18:00 +25°C° 0 mm 4 m/S 759 mmHg 72%
    19:00 +22°C° 0 mm 3 m/S 760 mmHg 80%
    20:00 +22°C° 0 mm 3 m/S 760 mmHg 83%
    21:00 +21°C° 0 mm 3 m/S 760 mmHg 86%
    22:00 +21°C° 0 mm 3 m/S 761 mmHg 88%
    23:00 +20°C° 0 mm 3 m/S 761 mmHg 89%

    Morgen, 23 Oktober, Dienstag

    Zeit Temperatur Niederschläge Wind Luftdruck Luftfeuchtigkeit
    00:00 +20°C° 0 mm 2 m/S 760 mmHg 90%
    01:00 +20°C° 0 mm 2 m/S 760 mmHg 90%
    02:00 +20°C° 0 mm 2 m/S 760 mmHg 90%
    03:00 +20°C° 0 mm 2 m/S 760 mmHg 90%
    04:00 +20°C° 0 mm 2 m/S 760 mmHg 90%
    05:00 +21°C° 0 mm 2 m/S 760 mmHg 87%
    06:00 +21°C° 0 mm 2 m/S 761 mmHg 84%
    07:00 +23°C° 0 mm 2 m/S 761 mmHg 80%
    08:00 +25°C° 0 mm 1 m/S 761 mmHg 70%
    09:00 +28°C° 0 mm 1 m/S 761 mmHg 61%
    10:00 +30°C° 0 mm 1 m/S 761 mmHg 51%
    11:00 +31°C° 0 mm 1 m/S 760 mmHg 47%
    12:00 +32°C° 0 mm 2 m/S 760 mmHg 44%
    13:00 +34°C° 0 mm 2 m/S 759 mmHg 40%
    14:00 +32°C° 0 mm 2 m/S 759 mmHg 44%
    15:00 +31°C° 0 mm 3 m/S 759 mmHg 47%
    16:00 +30°C° 0 mm 3 m/S 758 mmHg 50%
    17:00 +28°C° 0 mm 3 m/S 759 mmHg 59%
    18:00 +26°C° 0 mm 3 m/S 759 mmHg 68%
    19:00 +24°C° 0 mm 3 m/S 760 mmHg 76%
    20:00 +23°C° 0 mm 2 m/S 760 mmHg 79%
    21:00 +23°C° 0 mm 2 m/S 761 mmHg 82%
    22:00 +22°C° 0 mm 1 m/S 761 mmHg 85%
    23:00 +22°C° 0 mm 1 m/S 761 mmHg 86%

    übermorgen, 24 Oktober, Mittwoch

    Zeit Temperatur Niederschläge Wind Luftdruck Luftfeuchtigkeit
    00:00 +21°C° 0 mm 1 m/S 760 mmHg 88%
    01:00 +21°C° 0 mm 1 m/S 760 mmHg 89%
    02:00 +21°C° 0 mm 1 m/S 760 mmHg 90%
    03:00 +20°C° 0 mm 1 m/S 760 mmHg 90%
    04:00 +20°C° 0 mm 1 m/S 760 mmHg 91%
    05:00 +22°C° 0 mm 1 m/S 760 mmHg 84%
    06:00 +23°C° 0 mm 1 m/S 761 mmHg 78%
    07:00 +24°C° 0 mm 1 m/S 761 mmHg 72%
    08:00 +28°C° 0 mm 1 m/S 761 mmHg 61%
    09:00 +31°C° 0 mm 1 m/S 761 mmHg 49%
    10:00 +34°C° 0 mm 1 m/S 761 mmHg 38%
    11:00 +35°C° 0 mm 2 m/S 761 mmHg 37%
    12:00 +35°C° 0 mm 2 m/S 760 mmHg 35%
    13:00 +36°C° 0 mm 3 m/S 760 mmHg 33%
    14:00 +34°C° 0 mm 4 m/S 760 mmHg 40%
    15:00 +32°C° 0 mm 4 m/S 760 mmHg 47%
    16:00 +30°C° 0 mm 5 m/S 760 mmHg 54%
    17:00 +28°C° 0.1 mm 5 m/S 761 mmHg 63%
    18:00 +26°C° 0.1 mm 5 m/S 761 mmHg 72%
    19:00 +23°C° 0.1 mm 5 m/S 762 mmHg 81%
    20:00 +23°C° 0 mm 5 m/S 762 mmHg 81%
    21:00 +23°C° 0 mm 4 m/S 763 mmHg 82%
    22:00 +22°C° 0 mm 4 m/S 763 mmHg 83%
    23:00 +22°C° 0 mm 4 m/S 763 mmHg 83%

    25 Oktober, Donnerstag

    Zeit Temperatur Niederschläge Wind Luftdruck Luftfeuchtigkeit
    00:00 +21°C° 0 mm 4 m/S 763 mmHg 83%
    01:00 +21°C° 0 mm 4 m/S 763 mmHg 83%
    02:00 +21°C° 0 mm 4 m/S 763 mmHg 85%
    03:00 +20°C° 0 mm 4 m/S 763 mmHg 86%
    04:00 +19°C° 0 mm 3 m/S 763 mmHg 87%
    05:00 +20°C° 0 mm 3 m/S 763 mmHg 82%
    06:00 +21°C° 0 mm 3 m/S 763 mmHg 78%
    07:00 +22°C° 0 mm 3 m/S 764 mmHg 73%
    08:00 +25°C° 0 mm 3 m/S 764 mmHg 65%
    09:00 +28°C° 0 mm 3 m/S 764 mmHg 57%
    10:00 +30°C° 0 mm 3 m/S 764 mmHg 49%
    11:00 +31°C° 0 mm 3 m/S 763 mmHg 48%
    12:00 +31°C° 0 mm 3 m/S 762 mmHg 46%
    13:00 +33°C° 0 mm 3 m/S 762 mmHg 44%
    14:00 +31°C° 0 mm 3 m/S 761 mmHg 49%
    15:00 +30°C° 0 mm 3 m/S 761 mmHg 53%
    16:00 +29°C° 0 mm 3 m/S 761 mmHg 58%
    17:00 +28°C° 0 mm 3 m/S 761 mmHg 67%
    18:00 +26°C° 0 mm 3 m/S 761 mmHg 76%
    19:00 +24°C° 0 mm 3 m/S 761 mmHg 84%
    20:00 +24°C° 0 mm 2 m/S 761 mmHg 86%
    21:00 +23°C° 0 mm 2 m/S 762 mmHg 88%
    22:00 +23°C° 0 mm 2 m/S 762 mmHg 90%
    23:00 +23°C° 0 mm 2 m/S 761 mmHg 91%

    26 Oktober, Freitag

    Zeit Temperatur Niederschläge Wind Luftdruck Luftfeuchtigkeit
    00:00 +21°C° 0 mm 2 m/S 761 mmHg 92%
    01:00 +21°C° 0 mm 2 m/S 760 mmHg 93%
    02:00 +21°C° 0 mm 2 m/S 760 mmHg 92%
    03:00 +21°C° 0 mm 2 m/S 760 mmHg 92%
    04:00 +21°C° 0 mm 3 m/S 760 mmHg 91%
    05:00 +22°C° 0 mm 3 m/S 760 mmHg 86%
    06:00 +24°C° 0 mm 3 m/S 760 mmHg 82%
    07:00 +24°C° 0 mm 3 m/S 760 mmHg 77%
    08:00 +27°C° 0 mm 3 m/S 760 mmHg 66%
    09:00 +30°C° 0 mm 3 m/S 760 mmHg 54%
    10:00 +34°C° 0 mm 4 m/S 759 mmHg 43%
    11:00 +35°C° 0 mm 4 m/S 759 mmHg 36%
    12:00 +37°C° 0 mm 4 m/S 758 mmHg 29%
    13:00 +38°C° 0 mm 4 m/S 757 mmHg 23%
    14:00 +37°C° 0 mm 4 m/S 757 mmHg 26%
    15:00 +36°C° 0 mm 4 m/S 757 mmHg 30%
    16:00 +35°C° 0 mm 5 m/S 757 mmHg 33%
    17:00 +32°C° 0 mm 5 m/S 757 mmHg 48%
    18:00 +28°C° 0 mm 5 m/S 758 mmHg 62%
    19:00 +25°C° 0 mm 5 m/S 759 mmHg 77%
    20:00 +25°C° 0 mm 4 m/S 760 mmHg 79%
    21:00 +23°C° 0 mm 4 m/S 760 mmHg 81%
    22:00 +22°C° 0 mm 3 m/S 760 mmHg 84%
    23:00 +22°C° 0 mm 3 m/S 760 mmHg 85%

    27 Oktober, Samstag

    Zeit Temperatur Niederschläge Wind Luftdruck Luftfeuchtigkeit
    00:00 +21°C° 0 mm 3 m/S 760 mmHg 86%
    01:00 +21°C° 0 mm 3 m/S 760 mmHg 87%
    02:00 +20°C° 0 mm 3 m/S 760 mmHg 88%
    03:00 +20°C° 0 mm 2 m/S 759 mmHg 89%
    04:00 +20°C° 0 mm 2 m/S 759 mmHg 90%
    05:00 +21°C° 0 mm 2 m/S 760 mmHg 85%
    06:00 +23°C° 0 mm 2 m/S 760 mmHg 79%
    07:00 +24°C° 0 mm 2 m/S 760 mmHg 74%
    08:00 +26°C° 0 mm 2 m/S 760 mmHg 65%
    09:00 +28°C° 0 mm 2 m/S 760 mmHg 56%
    10:00 +30°C° 0 mm 2 m/S 760 mmHg 46%
    11:00 +31°C° 0 mm 3 m/S 759 mmHg 44%
    12:00 +31°C° 0 mm 3 m/S 758 mmHg 43%
    13:00 +33°C° 0 mm 4 m/S 758 mmHg 41%
    14:00 +32°C° 0 mm 4 m/S 757 mmHg 45%
    15:00 +30°C° 0 mm 4 m/S 757 mmHg 49%
    16:00 +29°C° 0 mm 4 m/S 757 mmHg 52%
    17:00 +27°C° 0 mm 4 m/S 757 mmHg 59%
    18:00 +26°C° 0 mm 4 m/S 758 mmHg 66%
    19:00 +24°C° 0 mm 3 m/S 758 mmHg 73%
    20:00 +24°C° 0 mm 3 m/S 758 mmHg 75%
    21:00 +22°C° 0 mm 3 m/S 758 mmHg 78%
    22:00 +22°C° 0 mm 3 m/S 758 mmHg 80%
    23:00 +23°C° 0 mm 2 m/S 758 mmHg 83%

    28 Oktober, Sonntag

    Zeit Temperatur Niederschläge Wind Luftdruck Luftfeuchtigkeit
    00:00 +21°C° 0 mm 2 m/S 757 mmHg 86%
    01:00 +21°C° 0 mm 2 m/S 757 mmHg 88%
    02:00 +21°C° 0 mm 2 m/S 757 mmHg 88%
    03:00 +22°C° 0 mm 3 m/S 756 mmHg 88%
    04:00 +22°C° 0 mm 3 m/S 756 mmHg 88%
    05:00 +24°C° 0 mm 3 m/S 756 mmHg 84%
    06:00 +24°C° 0 mm 3 m/S 757 mmHg 81%
    07:00 +25°C° 0 mm 4 m/S 757 mmHg 77%
    08:00 +27°C° 0.1 mm 3 m/S 757 mmHg 69%
    09:00 +29°C° 0.1 mm 3 m/S 756 mmHg 60%
    10:00 +31°C° 0.1 mm 3 m/S 756 mmHg 52%
    11:00 +33°C° 0 mm 4 m/S 755 mmHg 46%
    12:00 +35°C° 0 mm 5 m/S 754 mmHg 41%
    13:00 +36°C° 0 mm 6 m/S 754 mmHg 35%
    14:00 +34°C° 0.6 mm 5 m/S 753 mmHg 46%
    15:00 +30°C° 0.6 mm 4 m/S 753 mmHg 58%
    16:00 +27°C° 0.6 mm 4 m/S 752 mmHg 69%
    17:00 +27°C° 3.6 mm 4 m/S 752 mmHg 75%
    18:00 +26°C° 3.6 mm 4 m/S 753 mmHg 81%
    19:00 +25°C° 3.6 mm 3 m/S 753 mmHg 86%
    20:00 +25°C° 0.5 mm 3 m/S 753 mmHg 86%
    21:00 +24°C° 0.5 mm 3 m/S 754 mmHg 86%
    22:00 +24°C° 0.5 mm 3 m/S 754 mmHg 87%
    23:00 +22°C° 0 mm 3 m/S 754 mmHg 85%
    Mehr zeigen